DECAYED

DMSP 5D-2 F11 DEB, 28346 (Decayed)

Orbit data source: Space-Track

DMSP 5D-2 F11 DEB, 28346 was space debris in SSO originally from a launch on Thu, 28 Nov 1991 UTC launched from the Air Force Western Test Range (AFWTR). Debris objects in space refer to the collection of defunct objects orbiting the Earth. Examples of debris include non-operational satellites, rocket bodies, and fragments generated from explosions, collisions, or faulty payload assembly.

Not visible in the next 10 days
Identifier
28346, 1991-082BK
Orbit
Decayed
Country
Flag of USUS
Related business
Manufacturer
Unknown
Mission
Decayed spacecraft
Bus & Motor
Unknown
Mass
Unknown
Launch date (UTC)
1991-11-28 (34 years ago)
Launch vehicle
Unknown
Launch site
Air Force Western Test Range (AFWTR)
Object type
Payload
Rocket body
Debris
Shape & HBR
Unknown shape, 0.1 m
Radar Cross Section
Small (<0.1 m²)

Expand to show TLE details & history
Last TLE update: 4 months ago

TLE from 4 months ago
0 DMSP 5D-2 F11 DEB
1 28346U 91082BK  26005.29700591  .00642379  00000-0  14023-1 0  9991
2 28346  98.5210 130.5621 0012397 319.9934  68.8174 15.42020465130713
Epoch: 2026-01-05T07:07Z
TLE epoch observation values (Epoch: 2026-01-05T07:07:41.310Z)
Latitude
28.64296°
Longitude
-85.92404°
Altitude
440.768 km
Speed
7.652 km/s
True Right ascension
08h 23m 34s
True Declination
28° 29' 30"
Sunlit
Object was in full shadow at epoch
Visualization orbit readout
Latitude
Unknown
Longitude
Unknown
Altitude
Unknown
Speed
Unknown
Apparent Right ascension
Unknown
Apparent Declination
Unknown
Sunlit
N/A
Visualization observer readout
Local Sidereal Time
17:11:51
Azimuth
Unknown
Elevation
Unknown
Doppler factor
Unknown
Orbital elements
Apogee altitude
445.584 km
Perigee altitude
428.686 km
Semi-major axis
6,815.272 km
Eccentricity
0.00124
Inclination
98.521°
RAAN
130.5621°
Arg. of periapsis
319.9934°
True anomaly
68.94993°
Mean anomaly
68.8174°
Eccentric anomaly
68.88366°
Mean motion
3.85761 °/min
Orbital period
93.32 mins
BSTAR
0.014023
Loading maneuver chart data...
Computing Atmospheric mass density...

Documentation

Showing up to 5 results
|